Location: Choisy
(48.7685°N, 2.4187°E)
Time: 13:13:13
(UTC+00:00)

ATLAS 3B R/B - Pass Details

Date: 03 June 2022
Orbit: 976 x 1218 km, 63.8° (Epoch: 20 June)

Event Time Altitude Azimuth Distance (km) Brightness Sun altitude
Rises 20:10:24 0° 318° (NW) 3,954 8.3 -3.8°
Reaches altitude 10° 20:13:03 10° 316° (NW) 3,026 7.0 -4.2°
Maximum altitude 20:20:16 71° 235° (SW) 1,242 3.2 -5.1°
Drops below altitude 10° 20:27:48 10° 153° (SSE) 3,145 4.6 -5.9°
Enters shadow 20:29:04 - 152° (SSE) 3,586 4.8 -6.1°
